Location: Petrozavodsk
(61.7857°N, 34.3593°E)
Time: 22:05:40
(UTC+03:00)

Terra - Pass Details

Date: 29 October 2019
Orbit: 701 x 703 km, 98.2° (Epoch: 21 November)

Event Time Altitude Azimuth Distance (km) Brightness Sun altitude
Exits shadow 21:26:24 25° 360° (N) 1,427 3.6 -32.1°
Drops below altitude 10° 21:28:29 10° 348° (NNW) 2,186 4.9 -32.3°
Sets 21:30:48 0° 343° (NNW) 3,108 5.9 -32.5°
